Other Surface Observations
Issued by NWS Charleston, SC

Current Version | Previous Version | Text Only | Print | Product List | Glossary On
Versions: 1 2 3 4 5 6 7 8 9 10 11 12 13 14 15 16 17 18 19 20 21 22 23 24 25 26 27 28 29 30 31 32 33 34 35 36 37 38 39 40 41 42 43 44 45 46 47 48 49 50
000
SXUS52 KCHS 311511
OSOCHS

MARINE OBSERVATIONS
NATIONAL WEATHER SERVICE CHARLESTON SC
1000 AM EST SAT JAN 31 2015

...DOWNTOWN CHARLESTON AND HARBOR...

CITY           SKY/WX    TMP DP  RH WIND       PRES   REMARKS
WATERFRONT PRK   N/A     43 N/A N/A N12         N/A
FORT JOHNSON   NOT AVBL

...LAKE MOULTRIE...

CITY           SKY/WX    TMP DP  RH WIND       PRES   REMARKS
PINOPOLIS        N/A     37  18  44 NE8       30.29F WCI  31

...LAKE AND SUPPLEMENTAL COASTAL OBSERVATIONS...

STATION/POSITION TIME  TEMP    WIND        PRES    WAVE   SWELL
                       AIR SEA DIR/SP/G            HT/PER HT/PER/DIR
                 (UTC) (F)     (DEG/KT/KT) (MB)    (FT/S) (FT/S/D)
FORT PULASKI     1400   42 52   30/ 11/ 13 1028.9R
SAPELO ISLAND    1400   47      40/  7     1028.0R
UPR LAKE MARION  NOT AVBL
WINYAH BAY       1345   35      30/  4     1028.0
LAKE MURRAY      1400   38      30/  1/  3 1028.1R
ACE BASIN NERRS  NOT AVBL


...C-MAN AND BUOY OBSERVATIONS...

STATION/POSITION TIME  TEMP    WIND        PRES    WAVE   SWELL
                       AIR SEA DIR/SP/G            HT/PER HT/PER/DIR
                 (UTC) (F)     (DEG/KT/KT) (MB)    (FT/S) (FT/S/D)
BUOY 41004       1450   45 67   20/ 17/ 23 1027.9R   6/ 7   2/ 8
BUOY 41008       1450   49 54   50/ 16/ 19 1028.0R   5/ 7
FOLLY BEACH CMAN 1500   41      40/ 15/ 18 1029.5R
CAPERS NS BUOY   1400   41      50/ 19/ 21   N/A
FRIPP NS BUOY    1400   44      80/ 16/ 17 1027.3R
5E ST. MARYS GA  1421      56                N/A     4/ 6


STATION/POSITION TIME  TEMP    WIND        PRES    WAVE   SWELL
                       AIR SEA DIR/SP/G            HT/PER HT/PER/DIR
                 (UTC) (F)     (DEG/KT/KT) (MB)    (FT/S) (FT/S/D)
FRYING PAN BUOY  1450   39 61   10/ 17/ 21 1028.9R   5/ 6   2/ 70/ 8
BUOY 41025       1450   34 61  340/ 27/ 33 1025.5R   7/ 6   2/ 30/10
CAPE LOOKOUT NC  1500   33     340/ 16/ 18 1027.8R
BUOY 41002       1450   53 69  330/ 21/ 27 1024.4R  11/ 9   8/340/ 9
BUOY 41010       1420   62 73   10/ 16/ 21 1025.0R
ST AUGUSTINE FL  1500   56      30/ 16/ 17 1027.4R

$$



USA.gov is the U.S. government's official web portal to all federal, state and local government web resources and services.